Abraham Gonzalez, Mexico

7:08 AM CDT on April 27, 2017 (GMT -0500)
Abraham Gonzalez

Weather History for 76423 - February, 2014

Change the Weather History Date:

Thursday, February 6, 2014

  Actual Average Record
Temperature  
Mean Temperature 58 °F -  
Max Temperature 79 °F 73 °F - ()
Min Temperature 38 °F 37 °F - ()
Degree Days  
Heating Degree Days 6    
Growing Degree Days 8 (Base 50)    
Moisture  
Dew Point 17 °F    
Average Humidity 19    
Maximum Humidity 65    
Minimum Humidity 6    
Precipitation  
Precipitation 0.00 in - - ()
Sea Level Pressure  
Sea Level Pressure 29.99 in    
Wind  
Wind Speed 6 mph ()    
Max Wind Speed 23 mph    
Max Gust Speed -    
Visibility 12.3 miles    
Events      
T = Trace of Precipitation, MM = Missing Value Source: Averaged Metar Reports

Daily Weather History Graph

Daily Weather History Graph

Search for Another Location

Airport or City:

Trip Planner

Search our weather history database for the weather conditions in past years. The results will help you decide how hot, cold, wet, or windy it might be!

Date:

Astronomy

Feb. 06, 2014 Rise Set
Actual Time 7:36 AM CST 6:47 PM CST
Civil Twilight 7:13 AM CST 7:11 PM CST
Nautical Twilight 6:46 AM CST 7:38 PM CST
Astronomical Twilight 6:19 AM CST 8:04 PM CST
Moon 12:23 PM CST (2/6) 12:55 AM CST (2/6)
Length of Visible Light 11h 57m
Length of Day
11h 10m
Waxing Crescent, 49% of the Moon is Illuminated
Feb 6
Waxing Crescent
Feb 6
First Quarter
Feb 14
Full
Feb 22
Last Quarter
Mar 1
New

Hourly Weather History & Observations

Time (CST) Temp. Windchill Dew Point Humidity Pressure Visibility Wind Dir Wind Speed Gust Speed Precip Events Conditions
5:58 AM 46 °F - 23 °F 27% 29.93 in 6 mi Calm Calm - -   Clear
6:42 AM 39.2 °F 34.2 °F 24.8 °F 56% 30.17 in 10.0 mi SSE 6.9 mph - N/A   Mostly Cloudy
7:41 AM 35.6 °F - 24.8 °F 65% 30.18 in 12.0 mi Calm Calm - N/A   Mostly Cloudy
8:43 AM 46.4 °F 42.9 °F 21.2 °F 37% 30.01 in 12.0 mi ESE 6.9 mph - N/A   Mostly Cloudy
8:50 AM 44 °F - 24 °F 31% 30.03 in 31 mi Calm Calm - -   Clear
9:46 AM 55.4 °F - 15.8 °F 21% 30.21 in 14.0 mi South 4.6 mph - N/A   Partly Cloudy
10:43 AM 59.0 °F - 14.0 °F 17% 30.21 in 14.0 mi SSE 8.1 mph - N/A   Partly Cloudy
11:45 AM 68 °F - 27 °F 12% 30.01 in 19 mi SSE 2.2 mph - -   Clear
11:51 AM 66.2 °F - 8.6 °F 11% 29.88 in 14.0 mi South 6.9 mph - N/A   Scattered Clouds
12:42 PM 73.4 °F - 8.6 °F 8% 30.14 in 14.0 mi SE 4.6 mph - N/A   Mostly Cloudy
1:43 PM 75.2 °F - 6.8 °F 7% 30.09 in 14.0 mi South 11.5 mph - N/A   Scattered Clouds
2:40 PM 80 °F - 24 °F 6% 29.79 in 25 mi WSW 8.9 mph - -   Clear
2:42 PM 77.0 °F - 3.2 °F 6% 29.77 in 14.0 mi South 17.3 mph - N/A   Mostly Cloudy
3:40 PM 77.0 °F - 6.8 °F 7% 30.04 in 14.0 mi SSW 20.7 mph - N/A   Mostly Cloudy
4:50 PM 75.2 °F - 5.0 °F 7% 30.05 in 14.0 mi SW 19.6 mph - N/A   Mostly Cloudy
5:46 PM 71.6 °F - 10.4 °F 9% 29.79 in 14.0 mi SSW 23.0 mph - N/A   Mostly Cloudy
5:55 PM 72 °F - 26 °F 9% 29.74 in 19 mi WSW 6.7 mph - -   Scattered Clouds
6:50 PM 66.2 °F - 12.2 °F 12% 30.11 in 14.0 mi SSW 17.3 mph - N/A   Scattered Clouds
7:42 PM 62.6 °F - 15.8 °F 16% 30.13 in 8.0 mi SW 13.8 mph - N/A   Scattered Clouds
8:41 PM 60.8 °F - 21.2 °F 22% 29.96 in 8.0 mi SSW 9.2 mph - N/A   Mostly Cloudy
8:50 PM 62 °F - 33 °F 22% 29.77 in 6 mi WSW 2.2 mph - -   Mostly Cloudy
11:50 PM 56 °F - 26 °F 20% 29.79 in 6 mi WSW 2.2 mph - -   Mostly Cloudy